Date String (YYYY-MM-DD hh:mm:ss) UTC,Instrument flags,Ambient pressure (hPa),Sample flow (lpm),Bypass flow (lpm),Sample temperature (°C),Ambient temperature (°C),ASC tube jacket temperature (°C),LED temperature (°C),Box temperature (°C),Sample RH (%),Span deviation,Mass concentration (μg/m³),Mass concentration (μg/m³),Mass concentration (μg/m³)
DateTimeUTC,F1_M11,P_M11,Q1_M11,Q2_M11,T1_M11,T2_M11,T3_M11,T4_M11,T5_M11,U1_M11,ZSPAN_M11,X0_M11,X2_M11,X1_M11
2022-09-13 15:00:00,,0826.5,5.00,0.00,29.9,28.6,00.0,38.5,31.7,15.8,0002.9,0014.05,0009.59,0008.99
2022-09-13 15:01:00,,0826.6,5.00,0.00,29.9,28.7,00.0,38.5,31.7,14.2,0002.7,0014.24,0009.57,0008.98
2022-09-13 15:02:00,,0826.5,5.00,0.00,29.9,28.7,00.0,38.6,31.7,13.4,0002.5,0014.67,0009.51,0008.94
2022-09-13 15:03:00,,0826.5,5.00,0.00,29.9,28.7,00.0,38.6,31.7,12.5,0002.6,0014.69,0009.57,0009.01
2022-09-13 15:04:00,,0826.5,5.01,0.00,29.9,28.7,00.0,38.6,31.8,12.7,0002.2,0014.71,0009.65,0009.09
2022-09-13 15:05:00,,0826.5,5.00,0.00,30.0,28.8,00.0,38.6,31.7,12.8,0002.2,0014.33,0009.78,0009.20
2022-09-13 15:06:00,,0826.5,5.00,0.00,30.0,28.8,00.0,38.6,31.8,13.2,0002.5,0014.44,0009.91,0009.35
2022-09-13 15:07:00,,0826.5,4.99,0.00,30.0,28.8,00.0,38.6,31.8,13.1,0002.5,0015.04,0010.01,0009.44
2022-09-13 15:08:00,,0826.5,5.00,0.00,30.0,28.8,00.0,38.7,31.8,12.5,0003.0,0015.62,0010.14,0009.54
2022-09-13 15:09:00,,0826.5,5.00,0.00,30.0,28.8,00.0,38.7,31.9,13.9,0003.0,0015.65,0010.21,0009.62
2022-09-13 15:10:00,,0826.5,4.99,0.00,30.1,28.9,00.0,38.7,31.9,13.9,0002.2,0015.45,0010.27,0009.68
2022-09-13 15:11:00,,0826.5,4.99,0.00,30.1,28.9,00.0,38.7,31.9,12.8,0001.7,0016.14,0010.43,0009.82
2022-09-13 15:12:00,,0826.5,5.01,0.00,30.1,28.9,00.0,38.7,32.0,12.9,0001.5,0016.74,0010.53,0009.94
2022-09-13 15:13:00,,0826.5,5.01,0.00,30.1,28.9,00.0,38.8,32.0,11.7,0001.4,0016.45,0010.69,0010.11
2022-09-13 15:14:00,,0826.5,5.00,0.00,30.2,29.0,00.0,38.8,32.0,10.9,0000.9,0016.89,0010.94,0010.31
2022-09-13 15:15:00,,0826.5,4.99,0.00,30.2,29.0,00.0,38.8,32.0,11.2,0001.3,0017.44,0011.13,0010.47
2022-09-13 15:16:00,,0826.5,5.00,0.00,30.2,29.0,00.0,38.8,32.0,11.6,0001.8,0017.60,0011.26,0010.62
2022-09-13 15:17:00,,0826.5,5.00,0.00,30.2,29.0,00.0,38.9,32.0,10.9,0001.5,0017.93,0011.46,0010.80
2022-09-13 15:18:00,,0826.5,5.02,0.00,30.2,29.1,00.0,38.9,32.1,10.3,0001.6,0018.01,0011.78,0011.10
2022-09-13 15:19:00,,0826.5,5.01,0.00,30.2,29.1,00.0,38.9,32.1,11.6,0001.4,0018.00,0012.02,0011.38
2022-09-13 15:20:00,,0826.5,5.00,0.00,30.3,29.1,00.0,38.9,32.1,11.8,0000.9,0018.61,0012.36,0011.69
2022-09-13 15:21:00,,0826.5,5.00,0.00,30.3,29.1,00.0,38.9,32.1,11.5,0001.1,0018.97,0012.65,0011.98
2022-09-13 15:22:00,,0826.5,4.99,0.00,30.3,29.2,00.0,39.0,32.1,10.6,0001.4,0019.23,0013.06,0012.42
2022-09-13 15:23:00,,0826.5,5.00,0.00,30.3,29.2,00.0,39.0,32.1,11.9,0001.7,0019.74,0013.39,0012.69
2022-09-13 15:24:00,,0826.5,4.99,0.00,30.4,29.2,00.0,39.0,32.2,11.8,0001.8,0020.20,0013.60,0012.88
2022-09-13 15:25:00,,0826.5,5.00,0.00,30.4,29.2,00.0,39.0,32.2,11.6,0001.8,0020.68,0013.81,0013.08
2022-09-13 15:26:00,,0826.5,5.01,0.00,30.4,29.2,00.0,39.0,32.2,11.9,0001.3,0020.69,0013.99,0013.26
2022-09-13 15:27:00,,0826.5,5.01,0.00,30.4,29.2,00.0,39.1,32.2,12.4,0001.1,0022.07,0014.16,0013.40
2022-09-13 15:28:00,,0826.5,5.00,0.00,30.4,29.3,00.0,39.1,32.2,11.5,0001.3,0022.61,0014.32,0013.50
2022-09-13 15:29:00,,0826.5,5.00,0.00,30.5,29.3,00.0,39.1,32.3,11.8,0001.0,0022.76,0014.32,0013.50
2022-09-13 15:30:00,,0826.5,5.00,0.00,30.5,29.3,00.0,39.1,32.3,11.7,0001.0,0023.25,0014.33,0013.48
2022-09-13 15:31:00,,0826.5,5.00,0.00,30.5,29.4,00.0,39.1,32.3,11.9,0001.0,0023.19,0014.26,0013.45
2022-09-13 15:32:00,,0826.6,5.00,0.00,30.5,29.4,00.0,39.2,32.3,12.7,0001.0,0023.01,0014.14,0013.35
2022-09-13 15:33:00,,0826.5,5.00,0.00,30.5,29.4,00.0,39.2,32.4,12.8,0001.0,0022.39,0013.84,0013.06
2022-09-13 15:34:00,,0826.5,4.99,0.00,30.6,29.4,00.0,39.2,32.4,12.5,0000.9,0021.61,0013.71,0012.94
2022-09-13 15:35:00,,0826.5,4.97,0.00,30.6,29.5,00.0,39.2,32.4,11.8,0000.5,0021.36,0013.72,0012.92
2022-09-13 15:36:00,,0826.5,5.00,0.00,30.6,29.5,00.0,39.3,32.4,11.1,0001.2,0021.34,0013.80,0012.99
2022-09-13 15:37:00,,0826.5,5.01,0.00,30.6,29.5,00.0,39.3,32.4,11.9,0001.4,0021.17,0013.79,0012.98
2022-09-13 15:38:00,,0826.5,5.00,0.00,30.7,29.5,00.0,39.3,32.5,12.0,0000.8,0020.78,0013.74,0012.94
2022-09-13 15:39:00,,0826.5,5.00,0.00,30.7,29.5,00.0,39.3,32.5,12.3,0000.7,0019.68,0013.74,0012.94
2022-09-13 15:40:00,,0826.5,4.99,0.00,30.7,29.6,00.0,39.3,32.5,12.6,0001.1,0019.29,0013.61,0012.84
2022-09-13 15:41:00,,0826.5,5.00,0.00,30.7,29.6,00.0,39.4,32.5,12.7,0001.5,0019.35,0013.57,0012.83
2022-09-13 15:42:00,,0826.5,5.01,0.00,30.7,29.6,00.0,39.4,32.5,12.3,0002.1,0019.37,0013.62,0012.84
2022-09-13 15:43:00,,0826.6,5.01,0.00,30.7,29.6,00.0,39.4,32.5,13.1,0002.1,0019.62,0013.60,0012.82
2022-09-13 15:44:00,,0826.5,5.00,0.00,30.8,29.6,00.0,39.4,32.6,13.1,0002.1,0019.87,0013.64,0012.85
2022-09-13 15:45:00,,0826.5,5.00,0.00,30.8,29.6,00.0,39.4,32.6,12.9,0001.8,0020.66,0013.70,0012.91
2022-09-13 15:46:00,,0826.6,5.01,0.00,30.8,29.6,00.0,39.5,32.6,13.1,0001.6,0021.00,0013.69,0012.92
2022-09-13 15:47:00,,0826.5,4.99,0.00,30.8,29.7,00.0,39.5,32.6,12.9,0001.0,0021.80,0013.58,0012.79
2022-09-13 15:48:00,,0826.6,4.99,0.00,30.8,29.7,00.0,39.5,32.6,12.9,0001.3,0021.79,0013.50,0012.70
2022-09-13 15:49:00,,0826.6,5.00,0.00,30.9,29.7,00.0,39.5,32.7,13.2,0001.8,0021.77,0013.47,0012.67
2022-09-13 15:50:00,,0826.5,5.01,0.00,30.9,29.8,00.0,39.5,32.7,13.8,0001.8,0022.24,0013.41,0012.61
2022-09-13 15:51:00,,0826.5,5.00,0.00,30.9,29.1,00.0,39.5,32.8,14.0,0001.3,0022.36,0013.39,0012.55
2022-09-13 15:52:00,,0826.5,5.01,0.00,30.9,27.7,00.0,39.5,32.6,13.0,0000.8,0022.07,0013.46,0012.56
2022-09-13 15:53:00,,0826.5,5.00,0.00,30.8,27.0,00.0,39.4,32.5,13.6,0000.4,0021.40,0013.45,0012.58
2022-09-13 15:54:00,,0826.5,5.00,0.00,30.7,27.2,00.0,39.4,32.3,13.4,0000.2,0021.38,0013.55,0012.65
2022-09-13 15:55:00,,0826.5,5.00,0.00,30.6,27.5,00.0,39.3,32.2,14.4,-000.3,0021.24,0013.56,0012.65
2022-09-13 15:56:00,,0826.5,5.01,0.00,30.6,27.9,00.0,39.3,32.1,13.1,-000.1,0020.45,0013.57,0012.67
2022-09-13 15:57:00,,0826.5,4.99,0.00,30.5,28.1,00.0,39.3,32.1,13.0,0000.4,0020.24,0013.71,0012.83
2022-09-13 15:58:00,,0826.5,4.99,0.00,30.5,28.4,00.0,39.3,32.1,12.8,0000.1,0019.49,0013.84,0013.00
2022-09-13 15:59:00,,0826.5,5.01,0.00,30.5,28.5,00.0,39.3,32.1,12.5,-000.2,0019.49,0013.94,0013.11
